Time,TemperatureF,DewpointF,PressureIn,WindDirection,WindDirectionDegrees,WindSpeedMPH,WindSpeedGustMPH,Humidity,HourlyPrecipIn,Conditions,Clouds,dailyrainin,SoftwareType,DateUTC
2013-05-30 00:01:00,65.1,57.0,29.99,South,190,3.0,6.0,75,0.00,,,0.00,weatherlink.com 1.10,2013-05-30 04:01:00,
2013-05-30 00:16:00,65.2,57.0,29.99,SW,233,1.0,5.0,75,0.00,,,0.00,weatherlink.com 1.10,2013-05-30 04:16:00,
2013-05-30 00:31:00,65.3,57.0,29.99,West,259,2.0,4.0,75,0.00,,,0.00,weatherlink.com 1.10,2013-05-30 04:31:00,
2013-05-30 00:46:00,65.2,57.0,30.00,SW,226,2.0,3.0,75,0.00,,,0.00,weatherlink.com 1.10,2013-05-30 04:46:00,
2013-05-30 01:01:00,65.2,57.0,30.00,SSE,167,3.0,4.0,75,0.00,,,0.00,weatherlink.com 1.10,2013-05-30 05:01:00,
2013-05-30 01:16:00,65.2,57.0,30.00,WSW,244,3.0,4.0,75,0.00,,,0.00,weatherlink.com 1.10,2013-05-30 05:16:00,
2013-05-30 01:31:00,65.4,57.0,30.00,SSW,207,0.0,5.0,75,0.00,,,0.00,weatherlink.com 1.10,2013-05-30 05:31:00,
2013-05-30 01:46:00,65.5,57.0,30.01,South,188,2.0,5.0,75,0.00,,,0.00,weatherlink.com 1.10,2013-05-30 05:46:00,
2013-05-30 02:01:00,65.4,57.0,30.00,SW,214,0.0,3.0,75,0.00,,,0.00,weatherlink.com 1.10,2013-05-30 06:01:00,
2013-05-30 02:16:00,65.3,57.0,30.01,SSW,194,0.0,2.0,75,0.00,,,0.00,weatherlink.com 1.10,2013-05-30 06:16:00,
2013-05-30 02:31:00,65.5,57.0,30.00,SSW,200,0.0,3.0,74,0.00,,,0.00,weatherlink.com 1.10,2013-05-30 06:31:00,
2013-05-30 02:46:00,65.6,57.0,30.00,SW,236,0.0,4.0,74,0.00,,,0.00,weatherlink.com 1.10,2013-05-30 06:46:00,
2013-05-30 03:01:00,66.2,58.0,30.01,SW,236,2.0,4.0,74,0.00,,,0.00,weatherlink.com 1.10,2013-05-30 07:01:00,
2013-05-30 03:16:00,67.1,58.0,30.01,SSW,203,4.0,8.0,73,0.00,,,0.00,weatherlink.com 1.10,2013-05-30 07:16:00,
2013-05-30 03:31:00,67.0,58.0,30.01,South,180,4.0,7.0,73,0.00,,,0.00,weatherlink.com 1.10,2013-05-30 07:31:00,
2013-05-30 03:46:00,66.9,58.0,30.02,SSE,160,4.0,6.0,73,0.00,,,0.00,weatherlink.com 1.10,2013-05-30 07:46:00,
2013-05-30 04:01:00,66.8,58.0,30.02,SW,235,4.0,5.0,74,0.00,,,0.00,weatherlink.com 1.10,2013-05-30 08:01:00,
2013-05-30 04:16:00,66.4,58.0,30.03,WSW,246,2.0,3.0,75,0.00,,,0.00,weatherlink.com 1.10,2013-05-30 08:16:00,
2013-05-30 04:31:00,65.9,58.0,30.03,SW,220,0.0,2.0,76,0.00,,,0.00,weatherlink.com 1.10,2013-05-30 08:31:00,
2013-05-30 04:47:00,65.7,58.0,30.03,SW,218,4.0,5.0,76,0.00,,,0.00,weatherlink.com 1.10,2013-05-30 08:47:00,
2013-05-30 05:02:00,65.4,58.0,30.03,SW,225,5.0,6.0,77,0.00,,,0.00,weatherlink.com 1.10,2013-05-30 09:02:00,
2013-05-30 05:17:00,65.7,58.0,30.04,SW,224,3.0,6.0,77,0.00,,,0.00,weatherlink.com 1.10,2013-05-30 09:17:00,
2013-05-30 05:32:00,65.2,58.0,30.04,SW,222,3.0,4.0,77,0.00,,,0.00,weatherlink.com 1.10,2013-05-30 09:32:00,
2013-05-30 05:47:00,64.5,58.0,30.04,South,169,1.0,4.0,78,0.00,,,0.00,weatherlink.com 1.10,2013-05-30 09:47:00,
2013-05-30 06:02:00,64.4,58.0,30.05,SSW,204,3.0,6.0,79,0.00,,,0.00,weatherlink.com 1.10,2013-05-30 10:02:00,
2013-05-30 06:17:00,64.6,58.0,30.05,SSW,201,2.0,4.0,78,0.00,,,0.00,weatherlink.com 1.10,2013-05-30 10:17:00,
2013-05-30 06:32:00,65.7,58.0,30.05,SSE,159,2.0,8.0,77,0.00,,,0.00,weatherlink.com 1.10,2013-05-30 10:32:00,
2013-05-30 06:47:00,66.7,59.0,30.06,SSW,212,9.0,11.0,75,0.00,,,0.00,weatherlink.com 1.10,2013-05-30 10:47:00,
2013-05-30 07:02:00,67.4,59.0,30.06,SE,136,2.0,15.0,74,0.00,,,0.00,weatherlink.com 1.10,2013-05-30 11:02:00,
2013-05-30 07:17:00,68.0,59.0,30.06,SSW,194,8.0,13.0,73,0.00,,,0.00,weatherlink.com 1.10,2013-05-30 11:17:00,
2013-05-30 07:32:00,68.5,59.0,30.06,SW,226,3.0,15.0,72,0.00,,,0.00,weatherlink.com 1.10,2013-05-30 11:32:00,
2013-05-30 07:47:00,69.2,59.0,30.07,SSW,207,8.0,10.0,71,0.00,,,0.00,weatherlink.com 1.10,2013-05-30 11:47:00,
2013-05-30 08:02:00,70.1,59.0,30.07,SW,217,8.0,12.0,69,0.00,,,0.00,weatherlink.com 1.10,2013-05-30 12:02:00,
2013-05-30 08:17:00,71.2,60.0,30.07,SW,216,5.0,16.0,67,0.00,,,0.00,weatherlink.com 1.10,2013-05-30 12:17:00,
2013-05-30 08:32:00,72.0,60.0,30.07,SW,222,6.0,14.0,65,0.00,,,0.00,weatherlink.com 1.10,2013-05-30 12:32:00,
2013-05-30 08:47:00,72.4,59.0,30.07,WSW,255,8.0,15.0,63,0.00,,,0.00,weatherlink.com 1.10,2013-05-30 12:47:00,
2013-05-30 09:02:00,73.4,60.0,30.08,WSW,238,2.0,15.0,63,0.00,,,0.00,weatherlink.com 1.10,2013-05-30 13:02:00,
2013-05-30 09:17:00,74.3,59.0,30.08,SW,235,8.0,15.0,60,0.00,,,0.00,weatherlink.com 1.10,2013-05-30 13:17:00,
2013-05-30 09:32:00,74.8,60.0,30.09,WSW,240,10.0,13.0,60,0.00,,,0.00,weatherlink.com 1.10,2013-05-30 13:32:00,
2013-05-30 09:47:00,75.0,59.0,30.09,SW,214,12.0,15.0,58,0.00,,,0.00,weatherlink.com 1.10,2013-05-30 13:47:00,
2013-05-30 10:02:00,75.3,59.0,30.09,SW,233,10.0,14.0,57,0.00,,,0.00,weatherlink.com 1.10,2013-05-30 14:02:00,
2013-05-30 10:17:00,76.1,59.0,30.08,SSW,211,4.0,15.0,56,0.00,,,0.00,weatherlink.com 1.10,2013-05-30 14:17:00,
2013-05-30 10:32:00,77.0,60.0,30.08,SSW,203,9.0,11.0,56,0.00,,,0.00,weatherlink.com 1.10,2013-05-30 14:32:00,
2013-05-30 10:47:00,77.4,60.0,30.08,South,181,14.0,14.0,55,0.00,,,0.00,weatherlink.com 1.10,2013-05-30 14:47:00,
2013-05-30 11:02:00,77.7,61.0,30.08,WSW,255,5.0,13.0,57,0.00,,,0.00,weatherlink.com 1.10,2013-05-30 15:02:00,
2013-05-30 11:18:00,78.6,61.0,30.09,SSW,211,5.0,12.0,55,0.00,,,0.00,weatherlink.com 1.10,2013-05-30 15:18:00,
2013-05-30 11:33:00,79.0,60.0,30.09,SSW,198,6.0,15.0,53,0.00,,,0.00,weatherlink.com 1.10,2013-05-30 15:33:00,
2013-05-30 11:48:00,78.7,61.0,30.09,WSW,252,7.0,16.0,55,0.00,,,0.00,weatherlink.com 1.10,2013-05-30 15:48:00,
2013-05-30 12:03:00,78.5,60.0,30.09,WSW,243,12.0,17.0,54,0.00,,,0.00,weatherlink.com 1.10,2013-05-30 16:03:00,
2013-05-30 12:18:00,79.3,62.0,30.09,SSW,210,6.0,15.0,56,0.00,,,0.00,weatherlink.com 1.10,2013-05-30 16:18:00,
2013-05-30 12:33:00,79.3,62.0,30.08,SSW,194,10.0,17.0,55,0.00,,,0.00,weatherlink.com 1.10,2013-05-30 16:33:00,
2013-05-30 12:48:00,79.6,62.0,30.08,South,183,11.0,14.0,56,0.00,,,0.00,weatherlink.com 1.10,2013-05-30 16:48:00,
2013-05-30 13:03:00,80.5,63.0,30.08,SSW,192,13.0,14.0,55,0.00,,,0.00,weatherlink.com 1.10,2013-05-30 17:03:00,
2013-05-30 13:18:00,80.8,62.0,30.08,SSE,158,5.0,15.0,53,0.00,,,0.00,weatherlink.com 1.10,2013-05-30 17:18:00,
2013-05-30 13:33:00,80.0,62.0,30.07,SW,226,13.0,16.0,55,0.00,,,0.00,weatherlink.com 1.10,2013-05-30 17:33:00,
2013-05-30 13:48:00,80.1,63.0,30.07,SSW,198,5.0,16.0,57,0.00,,,0.00,weatherlink.com 1.10,2013-05-30 17:48:00,
2013-05-30 14:03:00,81.0,64.0,30.07,SW,219,9.0,13.0,57,0.00,,,0.00,weatherlink.com 1.10,2013-05-30 18:03:00,
2013-05-30 14:18:00,81.3,64.0,30.07,SW,229,8.0,14.0,55,0.00,,,0.00,weatherlink.com 1.10,2013-05-30 18:18:00,
2013-05-30 14:33:00,82.2,63.0,30.07,SW,236,11.0,15.0,53,0.00,,,0.00,weatherlink.com 1.10,2013-05-30 18:33:00,
2013-05-30 14:48:00,82.9,63.0,30.06,WSW,252,9.0,18.0,51,0.00,,,0.00,weatherlink.com 1.10,2013-05-30 18:48:00,
2013-05-30 15:03:00,82.8,63.0,30.06,SSW,200,7.0,15.0,52,0.00,,,0.00,weatherlink.com 1.10,2013-05-30 19:03:00,
2013-05-30 15:18:00,83.0,64.0,30.06,SW,228,10.0,15.0,53,0.00,,,0.00,weatherlink.com 1.10,2013-05-30 19:18:00,
2013-05-30 15:33:00,83.2,64.0,30.05,SW,218,8.0,14.0,52,0.00,,,0.00,weatherlink.com 1.10,2013-05-30 19:33:00,
2013-05-30 15:48:00,83.0,63.0,30.05,SW,236,13.0,19.0,51,0.00,,,0.00,weatherlink.com 1.10,2013-05-30 19:48:00,
2013-05-30 16:03:00,83.4,63.0,30.05,SSW,211,8.0,13.0,51,0.00,,,0.00,weatherlink.com 1.10,2013-05-30 20:03:00,
2013-05-30 16:19:00,82.5,63.0,30.05,SSW,212,7.0,15.0,52,0.00,,,0.00,weatherlink.com 1.10,2013-05-30 20:19:00,
2013-05-30 16:34:00,82.2,62.0,30.05,SW,214,8.0,18.0,51,0.00,,,0.00,weatherlink.com 1.10,2013-05-30 20:34:00,
2013-05-30 16:49:00,82.6,63.0,30.04,SW,214,11.0,15.0,52,0.00,,,0.00,weatherlink.com 1.10,2013-05-30 20:49:00,
2013-05-30 17:05:00,82.4,63.0,30.04,SW,226,13.0,15.0,52,0.00,,,0.00,weatherlink.com 1.10,2013-05-30 21:05:00,
2013-05-30 17:19:00,81.5,63.0,30.04,SW,233,5.0,16.0,54,0.00,,,0.00,weatherlink.com 1.10,2013-05-30 21:19:00,
2013-05-30 17:34:00,81.7,62.0,30.04,SW,231,9.0,14.0,52,0.00,,,0.00,weatherlink.com 1.10,2013-05-30 21:34:00,
2013-05-30 17:49:00,82.5,63.0,30.03,SSW,211,8.0,12.0,52,0.00,,,0.00,weatherlink.com 1.10,2013-05-30 21:49:00,
2013-05-30 18:04:00,82.3,62.0,30.03,WSW,243,8.0,12.0,51,0.00,,,0.00,weatherlink.com 1.10,2013-05-30 22:04:00,
2013-05-30 18:19:00,81.4,61.0,30.02,SW,214,10.0,17.0,51,0.00,,,0.00,weatherlink.com 1.10,2013-05-30 22:19:00,
2013-05-30 18:34:00,80.6,62.0,30.02,SW,236,3.0,10.0,54,0.00,,,0.00,weatherlink.com 1.10,2013-05-30 22:34:00,
2013-05-30 18:49:00,79.5,62.0,30.01,SW,217,5.0,9.0,55,0.00,,,0.00,weatherlink.com 1.10,2013-05-30 22:49:00,
2013-05-30 19:04:00,79.9,62.0,30.02,SW,231,6.0,11.0,55,0.00,,,0.00,weatherlink.com 1.10,2013-05-30 23:04:00,
2013-05-30 19:19:00,80.4,62.0,30.01,SW,222,3.0,11.0,54,0.00,,,0.00,weatherlink.com 1.10,2013-05-30 23:19:00,
2013-05-30 19:34:00,79.9,62.0,30.01,SW,218,2.0,8.0,55,0.00,,,0.00,weatherlink.com 1.10,2013-05-30 23:34:00,
2013-05-30 19:49:00,79.7,62.0,30.01,SSW,197,4.0,6.0,55,0.00,,,0.00,weatherlink.com 1.10,2013-05-30 23:49:00,
2013-05-30 20:04:00,79.1,62.0,30.01,SSW,203,3.0,6.0,57,0.00,,,0.00,weatherlink.com 1.10,2013-05-31 00:04:00,
2013-05-30 20:19:00,78.4,62.0,30.02,SSW,197,1.0,5.0,58,0.00,,,0.00,weatherlink.com 1.10,2013-05-31 00:19:00,
2013-05-30 20:34:00,77.3,62.0,30.01,SE,145,0.0,3.0,60,0.00,,,0.00,weatherlink.com 1.10,2013-05-31 00:34:00,
2013-05-30 20:49:00,76.2,62.0,30.01,SSW,195,3.0,4.0,61,0.00,,,0.00,weatherlink.com 1.10,2013-05-31 00:49:00,
2013-05-30 21:04:00,75.8,62.0,30.01,South,191,3.0,4.0,62,0.00,,,0.00,weatherlink.com 1.10,2013-05-31 01:04:00,
2013-05-30 21:19:00,75.1,62.0,30.01,South,191,1.0,3.0,64,0.00,,,0.00,weatherlink.com 1.10,2013-05-31 01:19:00,
2013-05-30 21:34:00,74.0,62.0,30.01,SE,136,1.0,2.0,67,0.00,,,0.00,weatherlink.com 1.10,2013-05-31 01:34:00,
2013-05-30 21:49:00,73.0,62.0,30.01,SSE,152,0.0,3.0,68,0.00,,,0.00,weatherlink.com 1.10,2013-05-31 01:49:00,
2013-05-30 22:04:00,72.3,62.0,30.01,SSE,161,2.0,3.0,70,0.00,,,0.00,weatherlink.com 1.10,2013-05-31 02:04:00,
2013-05-30 22:19:00,71.7,62.0,30.02,SSW,197,3.0,3.0,71,0.00,,,0.00,weatherlink.com 1.10,2013-05-31 02:19:00,
2013-05-30 22:34:00,71.6,61.0,30.02,South,172,3.0,5.0,70,0.00,,,0.00,weatherlink.com 1.10,2013-05-31 02:34:00,
2013-05-30 22:49:00,71.7,61.0,30.01,SSE,168,2.0,5.0,70,0.00,,,0.00,weatherlink.com 1.10,2013-05-31 02:49:00,
2013-05-30 23:04:00,71.4,62.0,30.01,SSE,154,1.0,2.0,71,0.00,,,0.00,weatherlink.com 1.10,2013-05-31 03:04:00,
2013-05-30 23:19:00,71.1,62.0,30.01,South,185,0.0,3.0,72,0.00,,,0.00,weatherlink.com 1.10,2013-05-31 03:19:00,
2013-05-30 23:34:00,71.1,62.0,30.01,SSE,166,2.0,2.0,72,0.00,,,0.00,weatherlink.com 1.10,2013-05-31 03:34:00,
2013-05-30 23:49:00,71.2,62.0,30.00,SSE,166,1.0,3.0,72,0.00,,,0.00,weatherlink.com 1.10,2013-05-31 03:49:00,